FlightSource - Aviation Photo Database

World Wide Airport Lookup


Search by ICAO
Or
Search by City

FlightSource.ca - Aviation Photo Database - Spichenkovo Airport Information
Airport Identification
Name: Spichenkovo Airport
ICAO: UNWW
IATA: NOZ
Airport Location
City: Novokuznetsk
Region: KEM
Country: Russia
Continent: Europe
Latitude: 53.8114
Longitude: 86.8772
Airport Information
Type: Medium Airport
Elevation: 1024 Feet ASL
Flight Status: UNWW
More Info: UNWW
Airport Weather    
Metar: UNWW 150530Z 33003MPS 260V360 CAVOK 26/13 Q1013 R19/09//60 NOSIG RMK QFE732
TAF:


Advertisement